Location: *
(58.4167°N, 22.5000°E)
Time: 20:41:41
(UTC+00:00)

Cosmos 1339 Rocket - Pass Details

Date: 22 September 2019
Orbit: 942 x 1006 km, 82.9° (Epoch: 21 October)

Event Time Altitude Azimuth Distance (km) Brightness Sun altitude
Exits shadow 20:45:33 69° 224° (SW) 1,015 4.4 -28.3°
Maximum altitude 20:46:17 79° 284° (WNW) 970 4.4 -28.4°
Drops below altitude 10° 20:52:24 10° 12° (NNE) 2,674 7.4 -28.8°
Sets 20:54:54 0° 13° (NNE) 3,623 8.2 -28.9°
